Location: Zagreb
(45.8000°N, 16.0000°E)
Time: 20:35:04
(UTC+01:00)

CUTE-I - Pass Details

Date: 31 October 2020
Orbit: 811 x 824 km, 98.7° (Epoch: 01 December)

Event Time Altitude Azimuth Distance (km) Brightness Sun altitude
Rises 04:51:44 0° 32° (NNE) 3,356 ? -18.5°
Reaches altitude 10° 04:55:24 10° 58° (ENE) 2,420 ? -17.8°
Maximum altitude 04:58:02 14° 88° (E) 2,164 ? -17.4°
Drops below altitude 10° 05:00:40 10° 118° (ESE) 2,415 ? -16.9°
Sets 05:04:18 0° 143° (SE) 3,344 ? -16.3°
